SL-16 DEB, 22382

Orbit data source: Space-Track

SL-16 DEB, 22382 is space debris in LEO originally from a launch on Fri, 25 Dec 1992 UTC launched from the Tyuratam Missile And Space Complex (TTMTR). Debris objects in space refer to the collection of defunct objects orbiting the Earth. Examples of debris include non-operational satellites, rocket bodies, and fragments generated from explosions, collisions, or faulty payload assembly.

Loading next visibility...
Identifier
22382, 1992-093BX
Orbit
LEO
Country
Flag of CISCIS
Related business
Manufacturer
Unknown
Mission
Spacecraft
Bus & Motor
Unknown
Mass
Unknown
Launch date (UTC)
1992-12-25 (33 years ago)
Launch vehicle
Unknown
Launch site
Tyuratam Missile And Space Complex (TTMTR)
Object type
Payload
Rocket body
Debris
Shape & HBR
Unknown shape, 0.1 m
Radar Cross Section
Small (<0.1 m²)

Expand to show TLE details & history
Last TLE update: 19 hours ago

TLE from 19 hours ago
0 SL-16 DEB
1 22382U 92093BX  26126.53178325  .00000836  00000-0  62592-3 0  9995
2 22382  70.8666 216.4150 0158288 326.9869  51.9483 13.91841247683711
Epoch: 2026-05-06T12:45Z
TLE epoch observation values (Epoch: 2026-05-06T12:45:46.072Z)
Latitude
19.21863°
Longitude
167.49165°
Altitude
853.997 km
Speed
7.463 km/s
True Right ascension
14h 53m 17s
True Declination
19° 06' 48"
Sunlit
Object was in full shadow at epoch
Visualization orbit readout
Latitude
Unknown
Longitude
Unknown
Altitude
Unknown
Speed
Unknown
Apparent Right ascension
Unknown
Apparent Declination
Unknown
Sunlit
N/A
Visualization observer readout
Local Sidereal Time
15:26:15
Azimuth
Unknown
Elevation
Unknown
Doppler factor
Unknown
Orbital elements
Apogee altitude
1,035.668 km
Perigee altitude
804.622 km
Semi-major axis
7,298.282 km
Eccentricity
0.01583
Inclination
70.8666°
RAAN
216.415°
Arg. of periapsis
326.9869°
True anomaly
53.39409°
Mean anomaly
51.9483°
Eccentric anomaly
52.66944°
Mean motion
3.48107 °/min
Orbital period
103.42 mins
BSTAR
0.00062592
Loading maneuver chart data...
Computing Atmospheric mass density...
Loading historical data...
Loading historical data...
Loading historical data...
Loading historical data...
Loading historical data...
Loading historical data...
Loading historical data...

Documentation

Showing up to 5 results
|